Simultaneous Nadir Overpasses (SNOs) Predictions

Prediction of SNOs between METOP-B and TERRA Satellite Orbit:

Table of predicted SNOs for the next 14.0 days since TLE Epoch: 4/8/2023
Index Date (METOP-B) Time (METOP-B) Lat,Lon (METOP-B) SZA (METOP-B ) Date (TERRA) Time (TERRA) Lat,Lon (TERRA) SZA (TERRA ) Distance(km) Time Diff (sec)
1 04/10/2023 03:26:54 -80.91, -17.44 105.37 04/10/2023 03:27:12 -80.90, -17.59 105.39 2.75 18
2 04/10/2023 04:17:32 80.96, 150.88 74.75 04/10/2023 04:16:32 80.96, 150.75 74.71 2.28 60
3 04/12/2023 18:47:56 80.86, -68.62 73.56 04/12/2023 18:48:56 80.86, -68.53 73.59 1.53 60
4 04/12/2023 19:38:34 -80.92, 99.75 106.32 04/12/2023 19:38:17 -80.91, 99.73 106.33 0.48 17
5 04/15/2023 10:59:35 80.88, 48.84 72.66 04/15/2023 11:00:00 80.88, 48.91 72.68 1.36 25
6 04/15/2023 11:50:13 -80.94,-142.77 107.22 04/15/2023 11:49:21 -80.93,-142.83 107.24 1.03 52
7 04/18/2023 02:20:36 -80.85, -2.03 108.34 04/18/2023 02:21:43 -80.86, -1.86 108.30 3.11 67
8 04/18/2023 03:11:13 80.92, 166.58 71.82 04/18/2023 03:11:03 80.91, 166.48 71.80 1.78 10
9 04/20/2023 18:32:14 -80.86, 115.30 109.22 04/20/2023 18:32:45 -80.87, 115.48 109.19 3.26 31



Historial Predications of SNOs between METOP-B and TERRA
